Theta_e
328 329 329 330 331 332 331 332 332 333 333 333 333 333 333 333 333 333 332 332 331 330 330 330 329 329 328 328 328 326 324 319 317 315 313 318 328 328 327 329 334 334 329 313 310 309 309 309 307 312 309 306 305 303 308 310 308 305 297 293 291 291 293 294 295 294 296 296 296 297 298 299 297 300 302 302 300 300 301 307 311 321 322 325 326 328 329 329
328 328 329 329 330 331 331 332 332 332 333 333 333 333 333 333 333 332 332 332 331 330 330 330 329 329 328 328 327 326 322 319 315 315 315 327 330 330 327 327 332 333 321 309 307 308 308 308 307 310 306 303 311 302 309 305 308 300 294 294 291 293 295 298 297 297 298 296 299 298 297 300 299 299 300 298 297 298 298 302 310 315 321 325 326 327 327 327
327 328 328 329 329 330 330 331 331 331 332 332 332 332 332 332 331 331 331 331 331 330 329 329 329 328 328 329 327 326 320 316 314 309 316 335 331 331 329 328 329 332 312 307 309 308 307 307 307 307 304 301 303 299 304 301 305 300 298 292 293 298 297 298 300 300 300 299 298 298 297 298 299 299 300 298 296 296 297 299 304 313 317 321 323 325 325 326
326 327 328 329 329 330 330 330 330 331 331 332 332 332 331 331 331 331 331 331 330 330 329 328 328 328 328 327 326 323 317 313 309 312 324 335 333 333 332 331 330 328 313 310 309 308 310 310 310 306 303 301 300 302 300 300 300 298 296 293 296 298 297 297 298 300 298 302 299 298 297 297 298 299 299 296 296 294 296 301 304 306 318 320 323 323 324 324
327 327 327 328 329 329 330 330 330 331 331 331 331 331 330 331 331 331 331 330 330 330 329 328 328 327 327 325 324 320 316 308 310 316 324 336 334 332 331 332 332 321 311 308 310 311 311 310 307 305 305 299 299 298 297 299 301 302 295 297 298 296 296 298 297 296 299 298 300 297 297 297 299 299 298 297 295 293 296 299 303 309 320 321 321 322 323 323
326 326 327 327 329 329 329 330 330 331 331 331 331 330 330 330 330 330 330 330 329 329 329 329 328 326 326 325 320 318 313 296 313 318 330 333 333 333 330 334 332 318 310 306 306 308 311 312 313 306 302 299 295 295 296 299 302 295 297 297 296 298 297 299 297 296 297 298 298 298 299 299 298 298 298 297 295 296 299 299 301 309 320 323 323 322 321 322
325 326 326 326 328 328 329 330 330 330 330 331 330 330 330 330 330 329 329 329 329 329 329 329 327 327 326 323 316 316 310 314 315 324 334 334 333 332 331 334 329 315 308 306 305 305 306 309 311 308 304 298 298 297 298 299 301 298 295 296 297 298 298 297 297 294 295 299 298 298 298 298 296 295 298 297 298 298 299 306 302 310 318 323 320 321 321 322
324 324 324 325 326 327 328 328 330 330 330 330 330 330 330 330 329 329 329 329 328 328 329 328 327 326 322 314 310 306 307 309 314 325 331 334 332 330 330 324 317 312 307 306 303 303 304 305 306 302 303 297 297 297 297 297 298 296 296 297 298 298 297 297 294 294 295 297 297 297 298 296 295 295 297 296 298 299 304 310 311 313 317 320 320 319 320 321
322 323 323 324 325 326 327 328 329 329 330 330 329 329 329 329 328 328 328 328 328 328 328 327 325 323 321 315 308 304 305 313 315 329 330 326 326 326 322 315 311 308 306 305 305 304 306 302 303 303 299 297 299 296 296 295 292 297 296 297 297 297 299 297 297 295 295 297 296 297 294 295 296 299 297 297 298 300 304 312 313 314 315 317 318 319 319 320
321 323 323 323 324 325 326 326 328 329 329 330 329 329 329 329 327 328 328 328 327 327 327 326 324 322 315 312 309 303 313 321 329 326 326 325 323 320 316 314 308 307 306 304 304 304 304 302 302 303 302 299 299 296 297 296 292 298 296 296 296 297 298 298 298 297 297 298 296 295 294 296 296 297 294 297 298 300 304 309 313 314 313 316 316 317 319 320
321 322 324 324 324 325 326 326 326 328 329 329 328 329 328 328 327 327 327 327 327 327 325 324 323 319 311 313 307 303 316 320 323 325 325 324 320 314 313 311 309 307 307 304 303 303 304 306 304 304 302 297 299 297 296 297 298 296 294 295 296 296 297 298 297 297 297 297 296 295 295 296 296 297 292 296 298 302 303 304 307 311 312 314 315 316 318 319
321 322 324 324 324 325 326 326 326 328 329 328 328 327 328 327 327 327 326 327 326 325 324 322 321 316 314 310 308 309 317 320 324 324 324 322 318 316 315 311 309 308 308 304 304 308 307 307 304 302 295 300 294 296 296 297 299 297 296 294 293 295 297 297 296 297 298 296 297 296 294 294 295 294 296 296 299 300 302 302 302 304 306 309 312 314 316 317
320 321 323 323 324 324 325 326 326 326 327 327 327 326 327 327 327 326 326 325 325 323 322 321 319 317 311 304 309 310 310 314 325 321 320 320 317 316 311 313 310 309 311 308 306 307 308 306 307 301 302 299 296 293 297 300 297 298 297 292 293 292 291 295 297 297 297 297 297 296 287 288 293 296 296 297 298 297 298 300 300 300 300 302 306 309 313 315
319 320 322 323 323 324 325 326 326 327 326 326 326 326 326 326 326 326 325 324 324 322 321 321 317 314 310 307 309 311 311 316 321 318 318 316 312 311 309 311 312 308 313 309 309 307 307 305 305 303 306 299 295 303 298 295 297 292 293 294 288 287 285 293 295 295 296 298 296 297 288 287 291 294 295 296 297 297 297 297 299 300 299 299 301 306 309 312
320 320 322 322 323 323 324 325 326 326 326 326 326 325 325 325 325 325 325 323 322 321 321 319 315 310 305 308 308 314 326 317 316 315 316 310 308 306 307 308 307 309 308 308 308 307 308 306 304 300 297 300 301 297 292 293 293 293 291 285 288 286 285 292 295 294 294 296 297 296 289 289 292 292 295 296 296 297 297 295 297 299 299 299 300 304 307 310
319 320 321 322 323 323 323 323 324 325 325 325 324 323 323 324 323 324 324 323 323 321 319 312 309 311 306 301 307 322 312 308 310 313 312 311 309 305 307 306 307 307 305 303 306 305 306 305 300 298 297 299 296 292 291 290 290 292 288 283 285 286 287 290 294 294 296 294 296 294 289 290 291 292 296 295 296 296 296 295 296 298 299 299 301 303 306 308
319 320 321 322 322 323 323 323 323 323 324 323 323 323 322 322 323 323 323 322 320 319 313 307 312 311 300 308 310 305 302 306 310 311 310 311 309 307 305 304 303 303 303 303 305 304 302 301 303 299 301 294 292 294 287 285 284 285 287 285 286 287 286 285 290 293 296 294 291 292 291 290 291 294 294 297 295 294 294 295 295 297 298 299 301 303 305 307
320 320 321 322 322 322 322 322 323 323 322 321 321 320 320 322 323 322 319 316 315 312 308 311 308 305 302 302 297 300 306 304 307 308 310 308 309 307 305 302 302 301 301 300 303 298 300 295 297 292 294 294 292 291 286 281 284 282 286 285 285 286 287 288 287 290 294 294 291 291 290 292 293 293 294 295 296 295 296 296 295 294 294 297 300 303 304 305
320 320 321 321 322 322 322 322 322 322 321 322 322 322 323 322 318 316 311 311 306 300 297 297 299 295 296 302 304 304 306 307 309 308 305 307 308 307 306 303 303 300 297 296 295 297 298 297 297 291 289 290 291 291 288 288 289 289 288 287 287 286 286 287 291 292 294 291 290 289 290 292 294 292 292 293 294 294 295 293 293 294 293 295 298 300 302 303
320 320 321 322 322 322 321 321 322 321 322 319 317 315 311 305 305 302 309 308 303 302 299 301 303 303 302 304 303 307 309 309 303 306 307 310 306 304 302 301 301 300 296 292 294 295 298 291 288 287 289 291 292 292 292 293 293 292 292 289 288 287 288 291 292 293 293 292 290 290 290 290 291 292 293 293 292 292 292 292 294 294 294 294 294 297 299 300
320 321 321 321 321 321 321 322 321 320 320 317 314 308 300 300 296 294 300 303 305 306 301 300 302 303 302 305 305 305 301 301 304 304 306 312 306 303 298 298 295 292 292 294 294 297 295 289 289 291 292 293 294 293 293 293 292 291 289 288 287 288 286 290 292 293 293 291 289 289 289 290 291 293 293 292 292 293 293 293 293 295 295 295 295 295 296 298
320 321 321 321 321 322 322 321 320 320 319 315 311 306 306 307 308 310 305 296 302 305 302 300 304 301 310 308 310 310 305 299 299 301 307 307 303 299 296 296 293 290 292 294 294 291 288 287 291 293 295 294 294 294 293 292 291 293 288 287 287 286 288 292 291 293 292 291 285 286 287 290 292 293 292 292 294 295 295 295 296 296 295 296 296 296 296 297
320 321 321 321 321 321 321 320 319 318 314 310 308 307 306 309 312 312 309 302 298 304 303 298 298 300 303 309 310 304 299 296 295 299 302 306 300 298 297 294 292 292 292 293 289 288 285 287 293 295 294 293 291 292 292 291 293 290 289 285 284 287 287 286 289 292 292 288 287 287 287 288 291 291 292 293 294 295 296 296 296 296 296 296 297 298 298 297
320 321 321 320 321 321 321 320 319 315 311 311 310 307 310 312 312 310 304 294 290 299 301 300 300 300 302 302 309 304 298 297 299 297 305 302 298 299 297 295 292 292 290 292 292 289 288 291 294 294 294 293 291 291 290 289 287 290 291 288 288 291 289 287 288 290 291 290 290 287 284 286 287 289 289 293 294 294 294 294 295 296 297 298 298 298 299 299
320 320 320 320 320 320 319 319 312 311 312 311 308 310 311 312 311 308 300 295 294 295 304 299 302 302 304 308 307 300 297 300 300 302 304 302 298 296 295 297 293 290 291 292 292 291 290 293 294 293 292 292 292 290 290 291 287 288 290 291 292 292 289 289 289 287 284 284 287 288 278 277 282 285 288 291 289 291 292 292 294 295 296 294 295 296 296 298
320 319 319 319 319 319 320 311 310 313 310 307 309 311 311 311 309 306 301 289 283 292 297 290 307 297 309 302 304 301 299 294 299 301 304 303 304 298 296 294 293 289 291 292 291 290 291 292 293 292 292 291 292 290 292 292 287 286 287 293 292 291 289 288 288 287 281 280 287 287 281 274 280 283 285 286 287 290 290 292 294 294 295 295 297 297 297 299
320 319 319 319 319 319 311 305 314 312 305 306 311 312 310 310 308 306 296 285 282 291 290 300 298 299 306 302 301 298 287 289 301 301 301 303 301 302 294 291 292 294 294 294 290 287 290 291 292 292 292 291 290 289 292 292 288 284 289 293 293 291 289 288 288 286 282 285 288 287 281 277 278 285 288 288 287 287 288 290 292 293 293 295 296 296 296 297
319 319 318 319 319 317 312 312 310 307 307 310 313 311 309 307 305 300 292 277 277 296 290 293 299 308 307 302 303 294 292 299 293 297 301 303 299 296 294 290 291 292 295 292 284 292 291 289 291 291 291 289 289 291 293 293 289 288 293 294 292 292 290 290 288 285 285 284 280 280 286 282 276 282 285 287 288 288 288 290 292 293 293 294 295 296 295 295
319 318 318 318 318 318 316 312 309 307 311 313 311 309 308 308 302 294 285 277 291 290 304 292 307 302 300 301 297 296 296 296 291 295 300 301 302 295 290 291 292 291 293 292 288 290 292 292 294 294 292 289 292 292 293 294 290 293 295 295 294 293 291 291 285 286 286 281 277 281 283 278 278 280 284 284 286 285 286 289 291 292 294 293 294 293 294 296
318 318 318 318 316 313 312 313 310 313 313 312 308 307 308 305 294 288 281 274 293 283 295 296 296 293 297 293 293 295 293 293 294 294 297 295 297 298 295 296 292 292 291 292 290 291 292 295 293 294 292 292 291 292 292 295 293 295 294 292 289 287 285 282 283 283 284 277 278 281 283 282 277 280 284 285 286 287 289 287 288 291 291 291 292 294 296 297
318 318 317 317 310 312 311 307 310 314 312 310 308 307 305 294 286 282 276 285 293 290 294 292 292 298 292 291 288 292 293 292 293 295 293 295 292 293 293 293 294 288 285 286 287 290 290 292 293 292 294 292 294 293 294 295 295 295 290 285 287 284 281 279 281 281 277 272 276 280 282 282 276 276 281 285 286 286 288 288 290 292 292 294 294 295 295 295
317 317 317 315 314 315 307 305 312 313 312 310 307 302 298 285 285 279 277 296 284 286 288 289 294 293 292 293 290 291 289 291 292 293 291 291 290 290 289 287 289 283 282 284 284 288 286 288 292 292 295 294 291 291 290 293 295 291 288 287 283 279 279 275 277 276 273 274 280 280 282 282 281 283 285 287 287 286 286 288 291 292 292 293 294 294 294 294
317 316 316 314 313 311 312 313 314 313 311 309 304 300 291 284 276 283 284 288 283 291 287 295 292 292 292 290 288 291 292 288 291 291 292 290 290 289 290 290 291 288 282 282 284 283 284 287 290 291 292 294 294 288 285 286 289 288 287 283 280 276 272 269 268 271 271 277 280 281 281 280 281 284 291 293 295 295 290 289 291 294 295 295 295 293 295 295
317 316 311 312 312 312 312 314 313 312 309 306 299 293 287 281 279 292 286 287 286 292 293 291 292 292 291 287 287 292 286 290 290 290 291 287 287 286 288 289 290 288 284 285 284 282 279 280 285 289 286 293 293 291 291 289 290 290 288 288 283 281 274 271 273 273 274 275 277 281 279 275 278 283 285 290 292 291 289 291 291 291 293 294 293 293 294 294
316 313 312 311 311 312 312 313 313 312 308 302 294 288 281 281 285 284 283 286 288 291 289 294 290 289 288 288 290 292 289 285 289 289 287 287 285 286 287 288 290 290 287 285 284 282 284 283 287 292 291 291 292 294 295 291 289 288 289 289 285 284 283 278 278 276 273 274 276 276 277 278 283 285 289 288 289 292 291 292 292 293 293 292 293 294 295 295
311 309 311 308 308 310 312 312 312 311 305 297 289 284 282 285 283 288 286 292 291 288 289 292 290 287 285 284 288 290 292 288 288 288 285 286 288 287 289 290 290 292 288 285 284 280 282 280 288 290 291 290 292 291 294 294 284 287 289 284 285 288 285 279 280 281 277 274 274 276 279 281 283 288 292 290 289 289 290 291 291 291 291 290 291 292 293 295
307 309 304 307 308 311 312 311 311 308 302 295 288 282 287 288 289 290 294 290 290 292 290 284 285 286 284 284 286 288 289 290 288 287 283 287 285 288 288 290 293 291 292 290 284 286 282 282 287 286 288 292 290 289 293 289 291 287 283 287 290 292 288 284 278 277 274 272 273 277 277 277 280 279 285 286 287 287 287 289 290 289 289 290 291 292 294 295
305 305 306 306 308 311 311 310 308 305 298 292 286 289 289 288 293 292 292 292 292 292 288 287 286 289 285 285 284 288 289 287 286 285 282 288 282 291 289 289 291 293 293 291 288 286 288 281 285 287 289 290 292 293 291 292 293 288 287 293 288 282 281 283 281 274 274 271 269 275 277 277 278 281 283 285 286 288 290 289 288 290 291 291 292 293 293 294
306 303 297 304 310 311 310 310 305 300 293 287 286 287 289 290 295 293 294 294 294 291 288 288 286 287 288 285 286 289 289 284 287 284 283 284 282 288 291 292 289 292 294 292 288 289 289 283 284 288 289 289 290 289 284 285 290 292 291 288 289 286 284 280 281 281 279 272 273 272 276 276 281 281 284 288 287 289 290 288 289 291 292 292 294 296 296 296
301 298 295 307 310 311 310 308 300 296 291 285 287 287 291 290 292 294 295 294 290 290 287 287 289 286 287 287 289 287 288 287 287 284 285 285 286 290 290 294 290 291 294 293 291 294 286 287 279 284 288 289 284 285 285 286 285 284 284 284 286 285 286 284 285 281 276 272 271 268 271 274 280 285 287 290 291 290 290 290 291 291 292 292 295 297 297 297
304 297 296 308 309 310 308 302 294 290 288 290 290 289 291 290 292 293 295 296 294 294 289 290 289 287 288 287 287 291 287 287 288 286 286 285 288 282 291 293 292 291 293 291 291 290 286 284 283 283 283 281 283 288 288 289 290 288 288 285 287 283 281 278 278 284 279 279 273 272 274 275 284 288 290 290 290 289 289 290 291 291 291 292 294 296 297 297
298 290 293 308 309 308 302 292 291 293 289 287 286 290 290 298 292 292 294 295 295 291 296 291 291 289 289 289 290 289 288 287 288 287 286 285 289 288 290 294 294 294 292 288 289 290 287 285 284 280 282 283 286 291 290 291 290 289 287 287 289 286 283 279 277 279 281 280 278 275 273 276 286 288 288 288 288 288 288 288 291 291 291 292 295 297 298 298
296 293 304 307 308 306 298 291 292 290 285 288 292 291 294 293 292 292 293 293 292 293 292 291 290 290 291 291 290 290 290 287 289 287 289 288 288 291 292 294 294 293 294 287 291 288 291 285 283 283 285 285 287 288 288 289 289 289 287 286 286 284 285 283 280 279 279 277 278 278 276 275 282 287 286 288 286 287 287 287 290 291 290 292 296 297 297 296
297 295 298 306 308 305 294 285 285 286 286 290 292 291 293 292 293 291 292 293 293 292 291 290 291 293 291 292 292 289 292 284 289 289 286 289 289 293 293 294 295 292 292 289 291 291 284 283 286 280 279 281 281 283 284 287 286 282 283 286 287 287 286 282 283 280 281 280 280 278 276 279 284 283 285 286 287 288 288 288 288 292 292 293 296 297 296 296
298 299 299 301 304 302 290 291 289 287 288 288 289 289 290 290 293 293 294 292 292 291 292 290 292 293 291 292 291 292 292 289 285 288 287 288 291 291 294 294 296 292 292 292 296 295 288 283 285 278 277 276 275 276 277 278 281 284 284 285 288 288 286 284 281 280 278 277 280 275 276 284 285 285 287 286 285 288 287 287 287 290 292 294 295 296 296 296
293 286 293 296 299 299 298 296 292 289 287 287 287 287 289 288 292 292 294 293 295 293 292 292 292 294 290 291 288 288 289 288 288 285 288 286 286 290 289 292 294 293 293 295 293 293 281 284 286 285 283 281 283 283 286 287 284 284 285 286 286 289 288 287 283 281 281 279 279 280 283 286 286 287 285 286 286 287 288 287 288 289 290 293 294 295 296 296
295 289 289 286 295 295 294 296 291 290 288 291 286 288 287 289 289 292 293 290 294 293 292 292 292 292 289 290 289 288 289 287 286 289 286 286 286 287 289 290 289 292 294 293 293 288 281 283 284 285 284 285 284 284 288 290 286 287 287 286 287 287 287 287 285 283 285 281 280 284 285 283 286 288 286 287 287 285 286 287 287 287 289 294 295 293 294 293
287 291 295 295 289 286 288 290 293 290 290 292 288 290 287 288 288 288 291 292 293 294 291 291 292 293 292 291 290 285 287 286 286 286 285 284 285 287 288 289 289 292 292 290 290 287 284 283 283 283 284 284 285 287 288 288 288 288 288 288 286 287 287 286 286 288 286 283 282 286 286 285 288 289 288 289 290 290 289 289 290 289 289 292 293 294 294 295
290 289 291 293 287 289 291 292 293 291 290 290 287 290 288 289 288 290 289 290 292 291 290 287 289 291 292 292 291 286 287 284 282 285 284 284 285 284 281 287 290 288 289 287 288 283 286 279 281 284 284 284 284 286 287 287 286 286 287 287 288 288 287 288 288 289 288 286 288 288 286 286 290 290 290 291 289 290 289 288 287 289 291 294 294 294 294 294
286 290 287 288 287 291 291 292 291 290 288 291 286 288 289 289 288 290 291 291 287 290 292 291 290 289 291 291 291 288 289 291 289 286 286 287 282 283 286 284 285 286 286 287 288 285 288 280 287 282 280 281 284 285 286 286 285 284 285 287 288 288 289 289 289 289 289 288 288 288 286 286 292 291 290 289 289 289 289 288 289 290 290 293 294 294 294 294
289 287 289 290 285 288 291 290 290 289 287 288 286 287 289 289 289 292 291 294 293 290 290 290 291 290 291 291 290 291 292 291 292 293 291 291 287 289 290 285 290 287 287 287 287 288 287 279 283 280 279 277 282 283 283 284 283 281 283 284 286 286 284 286 286 288 286 286 287 286 285 286 291 291 290 292 291 290 290 289 289 289 290 292 293 293 294 294
292 293 290 290 283 288 289 288 288 288 286 289 288 287 289 289 290 293 289 293 294 295 293 292 292 292 289 290 289 292 293 293 295 295 295 295 295 293 292 291 292 290 287 288 287 287 284 281 280 278 277 275 279 282 281 280 282 279 283 287 287 286 288 288 289 289 290 290 286 284 286 291 290 290 292 293 290 289 290 290 289 288 290 292 294 294 294 295
Wind_Speed
17 22 18 22 24 26 24 23 23 22 22 21 20 19 19 18 17 16 16 13 16 15 14 13 14 13 14 15 15 14 9 6 3 2 2 5 6 11 9 8 6 5 6 3 5 4 5 8 12 9 9 7 4 2 2 0 1 2 1 2 5 4 1 4 4 6 5 7 5 5 4 7 5 1 0 3 4 5 4 7 2 8 7 4 5 14 14 13
25 21 23 24 23 23 24 24 23 23 22 22 21 20 19 18 18 17 14 15 15 14 14 13 13 14 15 15 15 12 7 3 4 2 10 5 13 13 9 8 7 7 7 5 3 4 8 8 7 5 6 4 4 3 2 2 1 3 1 2 7 2 6 3 3 6 9 5 9 7 4 7 6 8 2 4 3 6 4 3 3 7 7 8 9 12 13 13
21 24 28 24 25 24 23 23 24 23 22 22 21 20 20 19 18 17 14 15 14 14 15 14 14 14 15 15 14 13 5 2 1 5 9 14 14 12 10 8 7 7 3 3 2 8 7 5 4 1 2 2 2 4 2 3 0 3 1 2 5 3 4 2 6 8 5 11 8 6 5 5 5 5 2 3 6 5 8 7 2 6 9 8 8 9 11 11
14 21 23 25 25 23 23 24 23 22 23 22 21 21 20 19 18 18 16 15 15 15 14 15 15 15 15 16 16 8 3 4 2 3 5 17 16 14 11 10 8 6 2 3 2 7 3 6 3 4 4 2 5 3 2 4 1 2 3 4 3 2 2 4 6 6 5 14 10 8 4 4 4 4 5 5 7 4 5 9 12 11 12 11 11 11 10 11
14 18 20 18 23 24 22 24 25 24 24 22 21 21 20 20 19 18 17 16 15 15 15 15 15 15 15 15 13 5 5 2 5 7 11 16 17 14 12 12 11 5 4 6 9 8 9 7 3 3 2 2 2 3 4 2 3 1 5 6 3 2 1 4 4 6 8 5 11 6 9 6 3 4 5 9 7 7 8 9 9 15 16 16 14 12 10 12
12 15 19 24 25 24 24 23 26 25 25 23 22 21 20 19 19 18 18 17 16 15 15 15 15 14 14 13 7 1 3 6 1 1 2 20 17 14 13 12 13 8 3 3 3 8 7 6 6 3 2 1 3 4 5 5 3 3 4 4 2 1 1 1 4 6 1 6 7 7 4 5 5 4 4 7 6 3 3 4 10 14 17 17 15 13 11 11
15 18 19 19 22 26 28 25 24 24 24 24 22 21 20 19 19 18 19 18 17 16 16 15 16 14 12 9 2 0 5 2 1 2 6 6 16 18 14 12 14 8 5 6 7 4 5 3 3 1 2 2 9 8 11 4 2 4 6 1 3 3 2 2 2 6 3 10 7 4 4 6 5 4 2 4 2 4 3 3 10 13 13 13 13 13 16 15
14 17 17 18 22 23 25 25 24 24 24 24 21 20 20 19 19 18 18 20 18 18 17 17 17 14 15 6 4 1 2 3 1 2 3 6 11 16 14 10 11 7 6 6 7 10 8 4 3 1 1 4 4 3 5 6 3 5 5 2 1 1 2 1 3 3 4 3 0 7 6 6 5 4 3 4 4 4 3 6 10 13 14 12 14 14 12 12
13 17 19 19 23 25 21 21 23 23 23 23 22 21 20 19 19 18 18 19 19 18 18 17 17 15 10 4 4 5 8 3 3 4 6 8 9 10 16 8 9 11 7 5 6 11 13 3 4 2 2 6 5 6 7 4 5 4 6 1 0 0 0 1 1 3 3 1 3 7 2 1 1 0 3 6 7 4 4 8 12 13 13 12 14 14 14 13
15 18 17 18 17 24 30 26 23 24 24 23 21 21 21 20 18 17 17 18 18 18 19 18 16 18 6 4 2 9 2 4 3 3 6 10 12 11 13 11 11 9 5 5 5 6 11 5 5 3 6 11 6 7 6 4 4 2 2 3 4 1 1 1 1 1 2 1 1 5 4 1 1 2 3 3 8 5 6 9 9 13 13 11 10 10 11 13
18 19 17 19 20 23 24 25 25 24 24 24 23 23 21 21 20 19 18 18 18 17 17 14 16 13 4 5 10 11 1 2 0 5 8 11 11 11 10 12 12 9 8 5 5 5 6 8 7 1 1 4 4 7 2 3 1 3 4 2 3 1 1 0 2 1 1 0 2 4 1 1 2 1 4 4 8 9 10 8 8 9 11 10 10 10 9 10
19 20 19 20 22 22 23 23 24 25 24 24 24 24 22 20 21 19 18 17 16 16 18 18 16 2 0 4 10 6 3 1 3 6 7 9 9 9 5 11 12 11 10 8 5 4 7 7 4 1 4 3 6 3 6 4 2 2 4 2 2 1 0 0 2 2 0 1 1 1 3 1 1 5 8 4 8 7 11 9 8 8 8 8 9 9 8 10
20 21 21 21 23 25 26 24 25 24 25 24 24 23 21 21 20 19 20 17 17 16 18 16 6 2 4 6 8 3 2 1 5 8 6 1 4 2 3 3 5 7 9 10 6 6 4 2 1 2 10 6 3 4 2 1 4 1 1 2 1 1 3 5 0 1 1 1 1 1 3 7 8 10 5 3 7 5 7 7 7 6 6 7 8 9 10 8
22 23 22 21 24 24 27 27 25 27 25 25 24 23 23 22 23 20 19 15 17 15 10 9 5 4 5 5 2 3 4 2 5 7 7 3 8 3 4 4 1 2 0 10 8 8 6 4 5 7 3 6 4 1 4 3 1 4 3 2 2 2 3 3 3 4 2 1 0 0 4 6 6 9 4 5 6 10 9 8 7 7 6 6 7 8 10 10
24 24 23 22 22 24 25 25 26 26 26 25 25 24 23 23 21 22 20 17 17 18 13 7 6 7 4 3 2 4 3 4 8 6 8 10 8 4 5 5 4 1 3 6 3 6 8 7 4 5 5 2 4 6 4 2 1 1 3 5 1 4 4 3 2 5 6 1 0 2 3 8 6 5 3 8 6 6 8 7 7 7 7 7 6 7 8 9
25 25 24 23 23 25 25 24 24 24 25 26 25 24 22 23 23 23 20 18 18 18 8 5 6 2 5 4 2 3 1 5 8 9 7 10 10 7 7 7 4 3 5 2 2 3 7 6 7 4 4 2 2 3 3 2 2 1 4 2 3 2 4 2 2 2 1 2 0 4 5 2 5 4 1 4 8 7 7 6 6 7 8 7 7 7 6 5
27 27 26 25 25 26 26 24 22 23 26 25 26 26 25 24 22 22 21 20 13 8 5 6 3 4 6 2 1 5 4 3 3 3 5 3 4 10 10 8 4 4 4 3 3 4 4 7 1 1 1 3 2 3 4 5 3 3 0 3 3 5 2 2 3 2 1 3 4 3 2 4 2 1 2 1 5 5 6 6 7 7 7 8 7 7 7 7
29 29 27 27 28 29 28 29 21 25 26 27 26 26 23 24 26 25 17 13 11 9 6 4 0 3 7 3 7 9 4 4 7 6 5 1 5 11 10 5 3 7 5 4 2 3 3 4 4 6 2 5 5 5 7 7 7 3 1 2 5 1 5 6 3 3 5 1 4 3 4 8 9 3 3 4 2 5 7 7 7 7 6 7 7 8 8 9
31 30 28 28 30 31 28 28 28 26 28 27 27 29 28 23 11 9 13 9 11 8 5 7 8 11 7 15 5 6 6 5 6 9 4 5 4 5 2 3 10 13 6 8 2 6 1 2 4 6 9 9 9 8 8 7 9 6 7 6 5 4 4 5 6 2 9 5 4 5 8 10 11 5 5 4 4 5 8 6 5 5 5 7 8 8 8 9
33 31 30 29 28 32 29 28 29 28 31 26 22 17 12 13 9 6 8 11 10 8 3 11 9 5 3 5 10 0 6 9 8 3 5 1 10 6 3 5 5 4 9 11 5 7 5 7 9 10 8 6 5 6 8 10 6 3 4 5 9 7 4 2 1 2 4 2 7 7 7 6 7 7 8 7 4 4 5 5 7 7 6 7 8 9 10 10
35 34 33 30 28 31 32 32 32 32 33 23 23 20 14 19 19 14 15 11 6 1 8 19 19 4 1 2 6 13 12 2 1 3 7 3 7 11 5 7 7 7 6 7 12 3 7 9 10 9 10 10 10 7 6 9 6 3 4 5 8 6 8 2 2 0 1 4 4 5 5 8 9 8 8 4 5 9 10 8 8 9 8 7 8 9 10 10
37 36 34 32 29 32 34 36 36 32 28 19 19 14 8 14 6 8 15 9 7 3 5 12 7 3 2 1 3 4 7 6 4 6 4 4 8 9 5 6 12 10 7 5 5 5 7 11 7 11 12 8 6 8 7 9 9 1 3 5 4 6 1 1 1 0 1 1 5 1 6 11 11 10 5 4 9 8 10 12 11 12 10 8 7 7 8 5
38 37 36 34 32 32 34 39 37 31 16 16 15 10 13 5 14 16 10 9 3 2 2 5 8 4 2 1 4 4 10 10 11 10 9 4 9 5 11 8 9 9 7 10 12 8 6 6 9 7 5 5 4 7 10 9 4 4 0 3 5 5 5 3 3 0 1 2 1 1 1 8 7 6 8 10 10 8 9 11 11 10 12 11 11 10 9 9
38 38 37 36 36 34 36 36 33 24 16 20 17 9 9 11 18 16 15 4 6 11 7 8 11 8 7 10 5 3 8 4 9 15 7 8 13 4 9 10 13 8 11 13 14 13 8 4 7 6 8 9 8 5 9 7 7 3 2 1 1 0 3 4 4 1 1 1 1 1 5 8 6 7 6 8 9 6 5 8 9 9 9 10 9 8 9 12
38 38 37 37 36 38 36 35 19 17 16 13 10 9 9 12 14 11 16 5 2 1 3 2 8 8 7 2 2 4 3 1 1 8 8 10 9 5 7 4 6 10 11 11 9 9 7 6 7 8 6 10 7 6 8 7 6 4 3 6 3 2 4 2 5 4 2 3 3 3 2 5 4 5 11 8 3 5 6 8 11 13 11 7 8 11 8 7
39 39 39 39 38 37 39 20 16 15 18 15 11 15 9 11 8 3 13 4 3 4 5 8 1 8 7 7 6 4 4 3 1 2 7 5 2 4 4 7 3 11 11 10 8 3 7 2 9 12 7 6 9 6 5 8 8 6 5 2 4 6 5 6 5 2 1 2 2 1 8 6 6 4 4 4 3 11 6 7 12 10 10 9 11 8 8 9
40 39 40 39 38 41 24 11 15 18 17 10 10 13 7 9 4 3 11 2 2 5 8 1 9 3 3 10 11 6 10 7 1 4 6 2 6 1 10 6 2 2 4 3 1 5 2 3 4 6 8 9 8 9 4 7 6 3 1 3 6 8 7 6 5 3 1 1 1 2 3 3 6 9 6 6 4 6 5 7 9 9 8 9 8 6 7 7
41 39 39 41 41 40 19 18 22 22 20 17 13 12 11 9 5 3 8 6 4 9 6 5 4 1 0 6 8 8 3 14 5 4 1 1 2 1 3 7 9 10 9 6 10 1 6 6 6 8 6 6 9 5 4 6 5 3 2 6 5 8 6 6 5 3 0 1 5 2 1 1 5 8 7 2 3 3 5 7 9 8 8 8 9 9 9 8
41 40 41 40 44 20 9 18 26 23 16 15 13 11 8 7 4 5 5 6 3 4 3 13 2 6 3 7 4 1 3 3 6 6 2 1 1 3 4 4 4 4 3 5 8 3 2 6 11 13 9 8 4 4 4 10 5 3 2 4 4 4 3 6 3 3 0 1 6 4 1 3 8 7 5 2 1 5 7 8 9 9 10 10 8 7 5 4
40 41 42 43 26 13 12 11 8 12 20 15 13 13 13 10 5 6 8 8 6 4 8 2 6 12 10 13 8 3 7 1 3 2 5 4 3 1 0 1 4 5 2 7 5 3 2 1 1 2 8 5 6 2 2 3 3 4 5 6 5 6 3 2 4 2 1 3 6 8 5 3 5 4 6 4 5 8 8 5 6 6 6 6 6 6 5 5
40 40 40 38 18 14 18 15 14 16 16 18 16 13 14 3 5 8 11 4 5 2 3 9 7 10 14 16 11 4 4 2 4 13 7 2 1 1 2 3 3 6 5 4 4 4 3 1 1 1 1 2 4 5 4 2 4 8 2 4 5 2 5 3 2 3 2 5 5 2 2 4 7 5 5 8 5 3 6 6 8 7 4 3 4 4 4 4
39 39 41 25 11 15 22 19 19 19 17 19 20 16 12 9 3 8 5 8 8 8 11 10 10 12 18 17 11 10 8 3 5 12 16 12 10 9 8 9 8 7 5 7 3 1 2 1 1 5 3 2 4 7 3 2 1 5 6 7 8 2 2 1 1 2 4 5 0 2 0 1 8 7 7 7 8 5 5 5 6 6 4 4 3 4 4 4
40 39 38 13 18 11 11 15 16 17 19 18 15 14 11 10 13 6 6 12 3 16 8 14 19 22 17 12 8 5 2 9 4 4 7 3 9 6 3 4 6 6 9 4 6 3 2 1 2 3 4 2 3 11 3 2 0 6 8 7 6 2 2 2 3 1 3 5 3 1 1 4 3 7 12 16 18 15 7 6 4 7 9 9 7 5 4 4
39 37 17 9 11 12 16 20 17 21 19 15 15 12 6 11 9 7 9 9 6 9 16 11 15 11 15 14 9 10 5 1 10 8 11 6 7 9 8 6 7 4 5 4 9 7 6 2 6 4 2 0 1 3 11 9 9 9 4 10 8 7 5 4 3 5 8 8 2 3 2 6 3 4 2 9 9 10 4 4 4 5 5 5 5 4 4 4
38 21 16 12 13 16 18 15 19 21 18 16 13 14 16 11 7 15 7 5 4 10 12 12 16 16 13 6 4 5 4 3 3 7 7 13 12 11 13 10 4 6 4 10 4 2 7 2 2 2 1 1 5 2 1 5 2 1 3 6 5 7 5 4 5 4 2 1 0 0 5 5 5 3 7 3 3 1 0 1 1 3 3 4 4 5 5 4
23 10 13 10 14 15 17 15 18 18 17 17 14 11 15 14 12 11 9 7 10 11 14 16 13 15 9 4 4 12 5 7 8 7 3 6 6 11 7 5 10 10 9 9 3 2 2 4 3 6 3 1 1 1 1 2 7 4 5 5 5 2 7 4 2 0 2 3 6 2 5 6 7 8 10 7 5 4 1 2 1 3 3 2 5 5 4 4
14 13 11 12 14 15 17 17 15 15 13 16 17 14 11 6 3 8 7 15 12 20 18 19 10 13 12 12 11 12 6 7 10 9 8 6 3 8 8 7 8 6 8 9 2 2 10 3 2 3 3 1 1 0 1 2 2 7 3 8 2 2 4 4 3 1 0 3 6 2 7 5 1 6 4 2 2 5 4 6 6 4 4 5 6 5 5 5
13 12 13 13 14 16 16 16 16 13 11 14 16 14 5 6 2 10 7 14 15 17 16 15 8 10 16 15 14 17 7 12 10 6 6 13 4 8 10 7 6 10 7 2 7 3 7 3 0 1 1 6 1 0 1 1 1 3 7 3 8 3 2 1 2 1 1 2 3 2 4 4 6 6 4 2 3 7 10 8 5 7 6 6 5 5 4 3
12 15 9 7 10 15 15 14 13 14 12 12 13 14 5 1 3 9 15 16 15 17 18 10 13 8 11 11 10 9 14 11 12 7 9 6 6 7 17 9 5 7 11 5 3 2 2 5 1 1 1 1 1 2 9 3 2 0 2 2 1 3 3 5 7 4 4 5 1 6 2 5 6 6 6 8 8 10 10 5 8 10 8 7 7 6 7 6
14 9 5 9 13 15 15 14 12 11 10 18 16 5 8 6 3 12 17 21 9 12 6 10 10 12 8 5 16 13 8 8 14 5 4 3 5 2 11 9 7 10 13 4 3 5 4 2 4 1 2 2 3 3 7 9 7 1 2 3 0 1 1 3 1 5 5 4 4 3 4 4 7 7 7 11 12 11 9 9 9 9 9 9 7 9 8 7
7 10 8 10 15 16 15 11 12 16 16 10 6 2 8 6 3 7 21 20 8 1 7 12 12 12 13 11 12 10 7 8 10 9 6 5 12 3 7 13 9 11 8 4 4 3 3 2 7 2 2 4 6 2 3 7 9 9 11 10 11 8 4 5 7 0 2 2 4 4 9 6 9 3 7 9 8 5 7 8 8 8 9 9 7 6 8 7
14 10 7 15 18 21 18 17 12 14 7 11 12 4 5 4 6 9 11 12 13 4 1 6 8 9 10 11 14 9 8 10 11 9 5 10 11 2 7 12 13 14 13 11 10 1 5 3 8 5 6 6 4 2 2 2 3 3 4 9 9 6 5 5 7 6 0 3 2 2 2 8 8 3 3 3 2 3 3 4 8 6 7 7 7 7 7 8
8 6 12 20 19 22 17 14 14 11 5 4 1 3 2 5 7 4 10 4 8 1 5 6 9 10 8 11 10 11 15 7 14 13 7 4 5 6 8 15 13 14 12 3 4 3 8 5 6 1 1 3 3 3 2 1 2 2 3 2 3 5 3 4 2 5 6 2 3 2 6 7 5 1 3 3 3 4 4 2 4 4 4 5 7 8 8 5
10 15 11 5 13 13 14 17 16 12 4 4 1 2 3 2 8 7 7 7 6 5 7 5 4 8 9 6 13 15 15 6 8 10 4 5 7 3 5 14 20 10 14 10 13 8 3 2 8 4 2 1 3 3 2 1 2 1 2 1 0 1 1 2 3 1 1 6 7 6 10 8 5 1 3 1 2 3 3 3 2 3 4 6 8 7 6 6
11 6 6 10 11 7 13 7 14 17 14 14 6 9 5 3 2 5 9 8 3 4 7 5 7 6 3 8 11 9 13 9 6 5 3 5 3 2 2 14 19 12 7 7 8 8 5 5 9 7 10 10 8 11 10 3 2 2 3 3 6 6 6 3 4 0 4 2 4 3 7 10 5 6 3 2 3 5 4 4 3 2 4 6 5 6 7 8
9 15 5 5 5 6 5 3 1 9 9 8 7 3 4 5 1 4 7 3 2 3 3 5 3 10 7 11 6 6 10 0 8 6 9 6 2 1 3 9 13 10 6 15 9 10 3 3 6 10 13 14 12 3 4 12 5 9 7 8 7 5 6 5 4 4 10 4 6 8 10 15 10 8 3 3 3 5 6 3 3 4 3 3 4 5 7 8
3 9 18 16 6 9 6 5 3 10 14 12 9 5 8 8 4 2 4 4 2 5 2 3 6 10 7 16 12 10 13 4 3 11 5 8 0 2 4 8 6 5 13 9 12 6 3 5 8 8 7 4 4 5 10 17 14 14 12 10 8 8 7 9 9 11 4 1 11 10 11 12 19 9 5 6 7 5 5 6 5 5 5 4 4 4 4 4
7 6 9 7 14 22 15 12 10 15 9 12 6 6 8 10 7 8 1 2 3 0 8 2 9 13 17 17 12 8 9 4 6 10 3 1 6 1 5 6 3 3 5 4 4 6 7 9 5 5 7 3 5 9 11 10 13 12 14 13 11 10 8 11 12 13 8 10 19 14 9 14 19 7 7 10 11 9 7 9 9 6 3 3 5 7 7 7
1 3 2 2 5 2 10 13 20 17 15 13 3 11 10 14 12 5 4 3 4 3 3 8 11 11 16 14 14 8 14 8 5 3 5 6 7 6 4 3 1 4 3 5 4 1 5 4 4 6 7 4 4 8 8 11 6 6 10 13 15 14 16 18 19 18 16 13 13 11 8 17 20 11 8 8 5 7 5 0 2 4 6 8 6 6 8 9
4 11 9 3 4 10 12 14 6 12 14 12 6 10 11 15 15 5 2 6 5 5 0 9 13 7 9 12 11 13 17 19 17 9 1 12 3 2 7 6 7 1 2 7 5 2 6 6 10 5 5 5 8 7 7 8 9 7 7 11 15 18 21 22 19 16 13 13 15 13 12 17 20 4 1 3 4 2 1 2 6 9 6 7 8 9 9 10
1 1 0 10 6 7 9 7 9 12 11 9 7 7 7 12 13 10 3 1 12 9 6 13 12 9 6 10 9 13 14 8 13 18 19 20 16 12 12 5 11 9 4 4 2 1 4 3 1 5 7 4 4 7 4 2 1 5 8 13 18 19 16 10 10 8 9 15 16 13 14 21 7 12 4 8 6 4 5 6 7 5 5 7 8 9 10 11
0 0 2 5 5 2 12 5 4 10 12 12 8 7 8 14 8 9 6 2 3 1 6 11 12 13 5 8 11 12 9 11 15 13 17 11 9 7 2 10 16 16 9 9 1 7 5 6 6 5 6 5 2 6 6 4 1 5 16 25 15 6 9 9 12 12 16 17 12 13 22 16 1 4 10 13 5 5 7 7 6 6 7 9 11 12 12 11
Wind_Direction
198 203 199 198 198 192 187 182 181 179 175 174 173 171 167 165 166 168 170 160 158 154 153 146 147 143 129 133 134 138 135 100 89 99 105 247 150 151 149 127 110 144 84 44 11 59 38 33 25 19 22 16 300 353 255 187 182 69 176 146 278 213 237 228 193 190 174 137 197 186 188 128 130 93 122 82 48 90 74 88 27 42 47 73 92 124 133 140
203 206 197 203 200 196 191 183 180 181 177 175 172 172 167 164 164 167 167 159 158 151 149 147 146 140 139 142 141 151 127 114 123 177 211 141 154 153 142 111 102 94 67 50 17 75 82 32 7 42 51 355 311 279 338 268 102 144 201 128 229 212 237 182 201 151 122 180 172 183 161 150 183 135 207 109 143 129 97 54 76 77 62 71 95 122 134 143
208 194 207 196 198 198 192 189 182 180 178 175 172 172 168 163 164 163 160 157 154 151 152 149 148 142 145 142 151 165 129 90 95 241 230 162 164 151 144 134 114 83 79 99 64 76 71 94 322 300 128 17 332 273 7 266 110 235 133 258 252 232 285 336 156 168 170 147 151 167 204 154 196 133 158 146 164 148 153 133 52 121 134 132 130 136 144 150
219 208 207 203 192 190 190 191 186 180 180 174 172 171 169 163 161 160 156 155 153 152 152 152 152 150 149 151 162 166 98 118 226 227 163 161 169 158 155 149 135 133 116 80 100 85 111 72 18 41 37 43 281 262 264 259 109 273 138 207 234 276 3 317 329 167 157 146 159 165 154 122 178 157 144 166 126 217 210 184 162 176 160 155 156 153 154 157
220 212 212 208 195 191 191 189 187 181 179 176 171 171 168 164 161 159 153 154 152 152 151 152 155 156 151 163 161 138 129 55 261 182 170 157 158 156 154 155 155 147 170 114 78 55 47 46 22 78 107 267 284 296 239 252 206 31 207 220 255 310 129 279 315 320 145 149 134 145 132 173 143 100 161 141 162 203 204 205 190 165 160 155 161 168 162 167
224 222 219 205 194 188 193 189 184 180 178 178 172 168 168 164 161 157 152 152 153 151 152 151 149 157 162 162 144 158 193 188 73 150 173 165 154 152 158 156 152 158 142 135 107 98 72 12 40 44 37 24 282 290 278 221 156 241 284 228 248 268 158 298 329 325 140 128 140 145 183 118 145 176 188 149 172 231 204 207 189 158 168 166 154 154 167 172
218 218 215 211 206 188 188 184 181 178 178 176 170 166 165 164 161 156 154 152 151 151 151 150 149 159 150 127 77 182 214 270 75 269 57 176 163 157 167 139 140 158 158 114 123 116 111 86 72 179 94 311 285 262 255 263 177 189 247 341 351 0 149 284 321 326 92 139 166 168 131 136 136 144 200 147 246 200 233 211 169 160 148 139 151 170 171 178
217 218 212 211 205 190 185 183 175 175 176 176 169 164 164 163 160 157 154 152 153 153 149 153 154 148 135 136 132 239 259 231 240 191 201 148 189 166 152 132 143 146 158 155 155 138 119 96 187 156 208 229 236 271 315 295 205 195 251 284 228 75 302 326 2 1 50 71 101 116 132 176 160 174 121 205 174 192 155 102 111 128 142 155 158 170 177 180
219 220 212 209 200 177 183 183 176 172 173 172 167 163 162 162 160 155 156 153 153 153 154 154 155 153 165 150 156 122 224 193 206 160 142 128 151 151 130 138 151 150 174 171 179 143 143 162 232 155 137 231 256 296 289 243 288 219 219 166 58 112 241 312 23 358 14 359 94 104 99 39 157 318 179 187 188 199 143 105 121 129 142 161 171 174 174 181
213 223 215 202 207 190 176 178 176 172 170 167 164 161 160 157 156 153 153 154 153 151 155 156 151 167 178 166 79 205 218 145 115 131 121 122 129 153 151 144 156 152 139 177 104 134 154 137 180 184 223 277 274 268 279 248 226 206 175 152 144 204 143 317 211 306 331 76 9 132 144 112 314 142 251 203 178 161 122 128 138 142 158 168 173 179 183 179
209 219 211 198 196 193 181 173 173 170 167 164 162 161 157 155 153 152 154 153 150 149 148 149 161 172 186 187 175 214 294 118 277 105 116 125 134 159 164 155 163 158 149 146 140 142 131 157 176 201 322 245 325 286 294 246 273 113 140 77 61 26 119 43 74 267 12 358 80 108 100 100 342 62 219 199 171 159 136 147 157 155 162 170 175 179 186 191
205 212 210 197 190 189 186 176 170 168 164 162 162 162 154 153 152 152 144 145 146 137 149 155 166 234 290 177 212 211 258 229 151 105 114 138 154 175 159 171 165 167 154 145 168 177 159 175 104 223 222 32 238 308 286 344 324 199 131 223 305 6 288 230 146 230 89 240 173 153 77 311 305 218 227 199 158 158 146 160 165 171 171 172 176 177 181 194
202 208 207 197 189 188 186 181 169 168 162 159 156 155 152 150 145 141 144 137 141 144 155 153 116 80 133 204 238 290 287 167 136 127 126 109 110 121 128 184 186 179 163 145 176 200 177 114 171 206 250 259 267 268 274 299 285 131 30 134 7 359 315 252 207 99 117 256 6 274 204 254 235 240 253 168 157 139 139 164 180 182 185 182 177 181 188 188
199 203 202 194 188 187 184 180 170 163 160 153 153 153 153 149 147 139 138 138 128 132 116 72 68 69 172 228 34 300 289 113 123 129 154 163 129 144 110 152 141 74 31 153 175 149 154 168 194 236 270 231 245 310 325 335 359 201 237 102 185 107 263 258 177 188 145 197 38 90 206 276 263 256 236 195 167 158 173 185 186 189 195 195 191 184 187 194
197 197 199 191 185 177 177 179 172 160 154 153 149 150 149 144 144 141 139 125 134 137 129 56 23 95 155 241 338 286 13 130 143 186 172 151 133 100 148 152 183 69 125 115 123 164 161 166 193 242 245 241 219 263 307 291 331 270 181 253 316 151 275 304 295 171 168 283 337 119 271 235 258 263 253 181 169 168 181 193 194 194 197 198 198 195 194 196
195 194 194 190 183 173 170 174 172 159 153 148 145 144 137 134 131 128 124 125 138 134 106 71 7 351 124 221 233 47 72 162 200 177 197 149 151 161 162 153 137 111 105 36 82 125 156 155 203 207 256 277 224 193 259 346 308 311 150 257 220 148 243 356 267 249 191 134 334 184 213 315 288 254 210 169 163 179 182 195 194 198 200 198 199 198 198 195
192 187 190 186 179 171 167 168 168 152 149 142 139 135 130 126 123 120 123 122 119 107 98 127 121 301 157 287 62 188 186 205 150 144 172 182 133 132 122 127 157 148 72 66 73 102 127 164 93 323 199 224 188 169 213 261 282 260 105 201 212 181 223 242 298 290 240 153 204 241 205 235 263 323 253 250 160 156 180 199 205 205 202 203 197 195 193 196
187 185 184 184 179 170 168 158 160 151 143 138 136 130 122 121 121 114 108 106 99 88 82 50 125 62 282 141 200 200 121 120 157 163 147 171 135 146 141 154 122 129 110 94 348 141 169 169 147 209 191 224 211 181 176 214 192 193 158 238 293 305 177 198 154 247 139 285 193 210 241 262 265 288 252 236 225 175 200 204 212 209 213 209 201 199 200 200
185 182 180 183 180 167 161 155 154 149 139 129 122 115 114 107 104 104 123 136 119 122 143 205 165 184 217 199 209 113 158 143 105 131 162 134 151 146 118 59 132 138 150 155 234 143 164 82 154 184 211 203 212 200 182 208 181 185 174 189 201 204 233 210 230 269 174 176 220 192 216 232 248 265 280 275 233 189 220 225 230 234 211 204 202 206 204 208
182 179 176 179 182 161 156 149 147 142 131 125 125 118 114 132 135 145 162 170 188 161 82 160 199 347 16 108 173 65 90 123 120 234 151 210 129 155 122 135 134 143 152 172 160 195 148 165 191 200 200 210 214 200 197 222 204 214 185 178 210 203 260 316 282 265 159 110 222 216 231 247 255 239 239 234 223 231 246 237 226 228 222 208 207 206 209 210
179 176 172 174 175 157 151 148 143 144 143 138 139 141 161 163 151 172 167 169 173 274 136 156 188 129 345 326 128 137 126 168 95 164 188 171 152 139 171 131 148 155 198 168 153 178 151 181 199 189 196 203 211 211 214 244 242 237 187 199 228 192 224 250 246 298 306 159 255 227 239 249 247 250 242 240 185 222 214 219 227 224 221 216 207 212 211 217
177 171 169 170 169 157 150 145 147 149 147 147 151 155 143 155 56 86 119 126 221 203 78 168 163 355 18 293 260 148 126 118 137 168 245 150 181 160 201 155 167 172 175 146 105 145 188 201 190 196 197 197 216 213 225 229 241 178 169 195 216 247 208 281 350 65 274 96 268 334 221 253 251 251 256 214 205 225 208 201 208 208 220 224 220 219 223 230
172 167 165 166 164 155 150 146 148 149 151 158 169 144 156 143 117 126 103 84 106 250 95 142 188 179 178 15 256 310 172 165 165 184 188 170 178 204 157 156 183 171 166 167 168 154 187 229 203 200 171 193 231 221 223 239 240 211 101 93 206 213 148 257 288 32 323 135 236 72 275 273 275 264 245 238 221 228 211 210 217 202 207 212 213 207 208 214
168 163 162 163 160 154 149 147 143 148 167 170 161 139 137 138 134 133 102 123 171 221 193 186 180 192 179 153 217 213 194 181 142 185 192 164 173 176 156 176 169 173 186 182 172 173 179 150 190 167 182 200 220 224 216 219 244 278 157 153 195 170 229 162 209 127 336 332 64 20 343 299 250 258 276 259 236 238 226 217 230 232 224 215 216 218 207 201
161 158 158 158 157 149 149 140 148 166 160 150 150 138 153 150 146 145 101 64 58 252 107 112 162 214 169 308 318 179 219 70 308 175 172 165 160 131 191 156 161 195 185 185 162 169 188 208 172 180 180 195 204 220 210 178 217 264 237 187 194 183 136 81 101 101 32 320 278 142 352 296 287 265 242 257 326 272 232 202 221 226 228 227 228 223 219 226
157 156 156 156 153 149 142 144 170 148 151 170 159 157 154 157 147 125 94 92 182 165 111 213 113 191 128 183 173 219 118 187 228 181 148 196 83 149 135 185 165 191 178 170 167 179 188 175 160 188 181 190 196 204 222 174 197 192 257 190 161 136 119 128 143 81 63 182 305 115 179 265 327 305 262 267 238 243 243 212 228 223 228 223 226 220 206 204
155 155 154 153 150 144 148 172 145 138 158 173 153 148 144 143 130 86 91 352 218 166 157 119 140 180 178 175 176 148 164 211 121 86 159 294 173 339 162 182 108 138 174 144 113 234 79 107 172 185 173 180 188 206 224 159 137 223 240 113 119 114 126 175 150 156 192 223 313 41 126 197 295 286 267 258 240 276 289 254 244 236 227 224 228 217 211 207
154 153 152 151 152 160 167 142 148 166 169 150 138 133 129 132 95 53 90 150 232 128 177 158 218 38 27 167 186 173 258 143 111 222 208 195 114 27 136 197 178 171 175 150 189 257 149 162 167 170 170 164 192 194 192 151 147 214 236 148 151 154 169 146 138 164 128 116 270 323 300 248 259 268 292 314 305 305 271 250 245 240 234 231 223 217 213 209
153 152 152 153 159 149 90 147 162 162 134 119 112 114 117 105 104 124 151 183 117 117 83 139 216 145 121 144 220 236 134 171 154 160 135 113 326 134 164 217 144 130 1 186 177 193 309 172 184 164 162 188 193 199 173 158 153 253 179 89 89 76 81 134 111 120 352 100 257 254 195 201 279 273 318 340 261 274 256 247 246 234 225 224 226 232 228 221
152 153 153 152 140 109 133 124 116 125 133 114 118 116 114 130 105 179 165 226 130 159 180 119 183 166 158 163 195 187 153 342 118 108 139 154 174 27 141 160 128 119 85 23 82 208 245 346 184 86 188 171 133 125 155 183 154 126 85 66 26 39 38 23 69 98 69 274 254 230 226 150 287 271 219 191 223 203 234 273 277 271 254 242 233 208 182 171
152 152 151 150 154 150 130 145 151 144 124 122 120 122 129 101 162 157 192 168 106 96 97 157 155 144 159 166 177 199 114 107 119 140 149 135 159 6 129 89 47 71 54 32 28 338 3 5 49 294 352 106 106 84 6 94 128 128 108 116 75 346 16 26 344 44 160 269 262 277 233 176 200 292 283 243 277 234 196 223 240 258 256 216 183 191 187 179
151 151 152 159 130 150 150 155 152 141 138 129 130 139 153 143 315 192 174 138 155 189 162 150 160 160 174 182 166 166 145 93 159 157 160 177 169 175 210 174 161 146 163 161 152 41 30 3 265 344 297 135 119 95 355 43 77 92 104 109 144 224 44 303 10 255 232 211 275 336 331 339 249 230 262 282 267 285 237 195 206 212 226 233 226 208 197 193
151 152 151 133 135 138 115 126 142 138 134 142 137 151 162 156 178 197 138 171 237 155 204 164 164 171 172 156 183 155 140 146 184 158 128 129 155 208 237 165 201 160 172 213 121 105 281 291 354 315 4 229 158 142 160 104 262 114 148 148 132 116 89 193 264 226 310 290 271 254 284 252 249 284 245 248 258 249 228 244 221 184 191 197 199 202 198 205
148 146 134 135 125 122 131 141 142 140 137 143 146 150 152 171 187 179 161 187 163 161 149 165 157 148 156 174 178 159 101 343 154 163 153 145 155 184 226 260 192 142 85 171 156 185 132 271 255 152 189 280 230 178 171 161 163 192 154 157 174 152 153 190 181 192 212 211 282 274 84 234 132 244 251 244 266 291 247 219 226 219 200 186 187 184 195 204
138 128 117 114 114 125 131 133 141 145 142 148 156 163 164 178 168 177 170 169 133 138 145 145 145 150 176 153 168 176 157 118 188 137 163 155 190 186 193 203 212 119 133 142 241 124 184 143 281 301 236 21 186 301 75 97 101 243 161 95 110 209 146 147 201 160 172 183 352 263 209 188 177 258 290 232 289 36 13 183 97 144 155 145 143 176 198 207
118 119 113 118 126 144 132 140 145 153 153 155 151 176 184 179 174 174 182 144 152 148 141 140 151 155 157 140 194 176 236 117 194 134 203 203 186 186 187 188 191 181 158 171 171 131 98 229 346 311 31 106 196 292 318 157 171 219 111 184 208 151 98 102 51 110 114 56 248 180 316 286 297 308 273 278 250 258 314 268 247 208 208 170 192 208 208 208
118 123 102 125 131 143 133 139 149 155 169 163 156 181 195 184 188 142 147 157 152 133 139 146 186 157 170 173 177 182 204 108 172 150 193 144 215 205 193 210 180 175 186 132 207 203 152 207 345 43 195 326 215 221 302 23 170 103 160 219 174 116 121 134 205 355 82 178 261 120 212 285 4 278 323 358 279 268 279 246 229 230 219 199 216 211 203 199
127 109 111 130 144 135 136 141 153 162 178 172 175 179 173 159 220 129 126 120 133 145 146 157 175 184 176 166 181 171 175 155 186 173 171 175 239 184 179 187 206 186 185 252 140 229 117 76 308 301 195 276 320 313 43 344 34 149 192 185 132 232 223 279 129 239 245 243 265 271 242 258 187 239 337 315 217 250 242 236 236 237 220 218 219 220 214 188
121 120 106 123 134 135 135 144 157 163 180 181 189 181 168 194 191 139 145 140 150 154 157 183 145 211 166 176 159 159 165 177 165 182 143 227 196 195 184 168 189 168 183 157 153 179 122 133 278 322 113 277 350 122 191 198 324 4 61 62 62 115 184 147 194 173 127 247 224 292 104 235 211 218 204 249 223 229 236 215 225 226 212 207 206 191 182 180
131 105 105 141 137 134 136 146 156 174 194 186 185 198 172 169 189 157 146 144 156 152 180 160 176 139 164 169 156 162 187 153 161 193 185 180 181 201 179 174 170 179 180 164 178 166 191 119 160 257 291 101 191 197 205 161 153 217 94 185 259 55 234 118 352 149 164 177 194 210 294 276 255 214 198 227 232 229 217 215 220 222 216 212 199 183 182 181
106 106 121 151 138 138 135 142 167 186 192 200 173 166 177 172 125 156 152 148 138 69 152 165 160 166 160 143 175 158 147 143 167 179 176 171 180 170 216 177 143 168 159 192 197 173 110 145 148 138 96 215 239 231 178 188 195 174 170 187 178 140 124 161 249 17 124 152 232 188 252 265 269 208 209 236 253 241 233 211 221 223 217 209 200 191 176 178
126 118 140 150 145 148 149 157 196 193 189 179 174 172 163 122 113 151 155 152 146 154 92 141 164 148 144 163 157 166 152 164 172 171 201 169 206 177 193 165 162 157 161 189 190 216 144 120 110 159 212 196 232 283 258 319 301 227 161 208 182 176 128 136 191 235 21 247 120 147 259 265 242 217 207 219 262 268 267 210 226 228 220 208 197 189 189 179
103 76 130 147 158 160 164 179 178 177 185 219 270 33 118 130 135 176 147 179 147 130 138 163 173 143 187 152 159 158 160 174 171 196 183 170 187 194 185 166 146 160 158 147 96 188 75 102 79 4 18 299 306 293 320 16 358 285 296 36 130 193 186 163 157 184 159 223 213 256 244 253 283 243 244 254 247 264 270 205 240 256 207 196 185 185 184 158
112 121 123 149 168 169 173 172 174 195 199 188 109 146 344 139 141 149 159 172 146 166 154 141 166 178 156 159 155 169 169 142 217 179 151 166 182 177 161 159 157 167 166 195 173 197 134 251 121 115 41 354 332 347 331 19 55 67 275 148 89 77 85 174 97 94 170 218 180 163 240 264 270 270 274 289 297 292 279 287 210 251 221 191 187 186 177 159
108 65 69 147 177 186 189 202 190 173 175 172 154 150 147 90 299 152 153 163 117 145 129 170 162 138 103 153 164 159 180 167 149 216 115 154 123 353 185 167 167 170 181 170 165 162 162 178 140 151 170 183 202 204 202 150 198 252 231 182 184 178 172 131 233 207 214 272 144 197 253 246 267 314 322 315 314 293 266 251 285 212 211 197 187 182 175 168
153 133 140 121 200 195 266 36 207 172 170 165 139 186 108 108 90 14 129 145 137 112 100 133 93 122 128 138 138 157 183 334 134 188 157 163 126 340 261 190 170 171 169 144 140 138 158 164 191 187 190 205 208 144 159 139 139 194 213 186 198 193 180 162 113 165 211 212 192 228 227 258 246 242 256 277 283 248 267 300 263 263 271 246 205 186 182 179
122 148 156 155 140 239 203 229 225 180 185 169 161 177 155 149 151 88 345 139 238 135 86 118 158 144 172 152 165 173 177 121 63 133 170 136 281 181 40 125 57 96 145 129 153 99 104 186 217 212 218 218 136 151 185 154 178 200 188 201 192 176 173 171 185 221 169 163 256 229 229 242 251 231 226 250 263 270 269 258 260 254 243 208 198 184 162 161
145 191 192 168 153 175 191 230 217 185 185 168 158 137 150 141 164 156 58 334 140 182 114 332 170 166 166 165 150 156 169 157 136 156 107 89 113 42 74 355 89 300 143 136 152 132 146 194 224 170 231 155 161 162 174 171 182 188 192 188 184 180 165 184 213 221 169 198 232 230 221 246 256 223 216 223 224 229 226 231 222 205 172 174 174 180 184 186
54 62 160 339 8 175 185 177 176 178 167 173 128 156 155 157 172 162 149 128 125 202 116 154 187 175 169 155 154 155 162 146 208 166 152 158 147 132 84 62 47 19 105 129 161 164 134 221 188 174 213 155 218 179 186 171 193 186 192 195 190 178 188 196 210 212 206 224 244 254 235 247 253 243 218 241 213 220 240 338 78 143 201 195 185 189 192 194
177 158 189 28 347 141 120 116 140 164 174 170 135 184 163 167 164 137 126 139 148 196 109 156 172 163 149 160 155 164 182 183 163 145 201 122 147 125 160 179 158 23 55 152 163 270 148 248 154 154 186 223 216 202 195 188 159 197 218 203 199 197 199 202 208 215 213 239 244 254 257 262 256 228 232 268 235 264 38 176 206 216 202 184 186 196 201 204
106 345 341 141 102 127 110 133 144 164 165 180 159 179 150 173 166 158 134 307 174 167 170 171 157 139 149 157 166 176 183 154 154 162 162 148 167 194 150 240 155 155 158 129 160 167 152 243 108 122 181 254 202 173 172 74 81 189 222 222 215 202 205 211 212 203 185 215 226 238 249 247 263 88 234 230 222 168 205 226 235 241 209 191 194 202 204 209
51 234 111 95 72 145 143 140 141 128 185 188 167 185 171 179 155 142 123 30 48 154 163 143 153 135 168 160 189 188 169 156 170 162 166 164 154 145 67 148 162 156 172 164 125 147 171 133 148 155 170 235 269 142 125 99 145 287 241 224 204 202 212 206 219 213 207 203 210 220 236 250 228 169 241 253 197 196 214 225 232 241 222 199 199 203 208 212